sat.trackr.live / text

‹ back to catalog

STARLINK-36820

NORAD 67966 · 2026-038F

PAYLOAD ACTIVE UNKNOWN

§ Identity

Operator
Country
US
Launch date
2026-02-25
Launch site
AFWTR
Launch vehicle
Mass (kg)
RCS (m²)

Purposes: comms

External: N2YO · Heavens-Above · Gunter

§ Orbital elements

Epoch: 2026-05-25T00:18:42.310080Z

Period
93.91 min
Inclination
97.2843°
Eccentricity
0.0001757
Mean motion
15.33447625 rev/d
Perigee alt
464.3 km
Apogee alt
466.7 km
Semi-major
6,843.7 km
B*
5.0045e-4
RAAN
155.0089°
Arg perigee
93.8859°
Mean anomaly
266.2585°
Rev number
1,493

§ Raw data

STARLINK-368201 67966U 26038F   26145.01298970  .00016118  00000+0  50045-3 0  99902 67966  97.2843 155.0089 0001757  93.8859 266.2585 15.33447625 14930

JSON: /api/v1/satellites/67966 · /tle

For live sub-satellite position, see the globe view (requires WebGL).

§ Visibility from observer

Set your observer location to see the next 7 days of passes ≥ 10°. The values pass through the URL so the page stays shareable.

No JS? Fill the form by hand. The geolocation button needs JavaScript.